Wind_Speed
31 39 46 50 51 52 55 56 56 54 51 48 46 45 45 44 43 42 41 40 39 39 39 39 39 39 39 39 39 39 40 40 40 41 41 42 42 43 44 45 45 46 47 48 49 49 50 51 52 53 54 55 56 57 58 59 59 59 59 59 59 59 58 56 53 49 46 46 47 48 49 50 51 51 52 52 52 53 53 53 54 54 55 56 57 58 59 60
25 33 42 48 49 50 54 56 55 53 51 48 46 45 44 44 43 42 41 40 38 38 37 37 37 38 38 38 38 38 38 39 39 40 40 41 42 42 43 44 45 46 47 48 49 49 50 51 52 53 54 55 56 56 57 57 57 57 57 57 56 55 53 50 47 44 44 46 48 50 50 51 52 52 52 51 52 52 52 53 53 54 55 56 57 58 59 60
20 28 38 45 47 48 52 54 53 51 50 48 46 45 44 43 43 42 40 39 38 38 37 37 36 36 37 37 37 37 38 38 39 39 40 41 41 42 43 44 45 46 47 47 48 49 50 51 52 53 53 53 54 55 55 55 56 56 56 55 53 51 48 45 43 44 45 46 48 50 52 52 52 52 52 52 52 52 53 53 54 54 55 56 58 59 60 61
18 25 34 41 44 46 49 51 52 50 49 48 46 45 43 42 42 41 40 39 38 38 37 37 37 36 36 37 37 38 38 38 39 40 40 41 41 42 43 44 45 46 47 47 49 49 50 50 51 51 52 52 53 53 54 54 55 55 54 52 49 46 43 43 43 45 47 48 49 51 52 52 52 52 52 53 53 53 54 54 55 56 57 58 59 60 61 62
18 24 31 38 41 42 45 48 50 49 48 47 45 44 43 42 41 40 39 38 38 37 37 37 37 37 37 37 37 38 38 38 39 39 40 41 42 43 44 44 45 46 47 47 48 48 48 49 50 50 51 51 52 53 53 54 53 52 50 47 44 42 42 43 45 47 48 49 50 50 51 52 52 52 53 54 54 55 55 56 57 58 59 60 60 61 63 64
21 25 30 34 37 39 41 44 47 47 46 44 43 43 42 41 40 39 38 38 37 37 37 37 37 37 37 37 37 37 37 38 38 39 39 40 41 42 42 43 44 44 45 45 46 46 47 48 49 49 50 50 51 52 52 51 50 48 46 43 41 41 43 45 47 48 50 50 51 50 50 51 53 54 54 55 55 56 57 58 59 60 61 62 63 64 65 66
24 27 29 31 32 34 37 40 43 44 43 43 42 42 41 40 39 38 37 36 36 36 36 36 36 36 36 36 36 36 37 37 37 38 38 39 40 40 41 41 42 43 43 44 44 45 46 47 47 48 49 50 50 50 49 48 46 44 42 41 42 43 45 47 48 49 51 51 52 51 51 52 53 55 55 56 57 58 59 60 61 62 63 64 66 67 68 68
25 26 28 29 30 32 34 37 40 42 42 41 41 40 39 38 37 36 35 34 34 34 34 34 34 34 34 34 35 35 35 36 36 37 37 38 39 39 39 40 41 41 42 42 43 44 45 46 47 48 49 49 48 47 46 44 43 41 41 42 44 45 47 49 50 51 52 53 53 53 52 52 54 55 57 58 58 59 61 62 63 64 66 67 68 69 70 71
24 26 26 27 29 30 33 35 38 40 40 39 38 37 36 35 35 34 33 33 32 32 32 32 32 32 32 32 33 33 34 34 35 35 36 36 37 37 38 38 39 40 41 41 42 43 45 46 47 47 47 46 44 43 42 41 40 40 42 44 46 47 49 50 52 52 53 54 54 55 54 53 54 56 58 59 60 61 62 64 66 67 69 70 71 72 72 73
21 24 25 26 27 28 30 32 35 37 37 36 35 34 33 33 32 31 31 31 31 31 31 30 30 30 30 30 31 31 32 33 33 33 34 34 35 35 36 36 37 38 40 41 42 44 45 45 45 45 44 42 42 41 40 39 40 41 43 45 47 49 51 52 53 54 54 55 56 56 56 54 55 57 58 60 61 63 64 66 68 70 71 73 73 74 74 74
17 21 23 24 25 27 29 30 31 33 33 33 32 32 31 30 30 29 30 30 30 29 29 29 29 29 29 29 29 29 30 31 31 32 32 32 33 34 35 36 37 39 40 42 43 43 44 43 43 42 41 40 39 39 39 39 40 42 44 46 48 50 52 53 54 55 56 56 56 57 57 55 55 58 60 61 63 65 67 69 71 73 74 75 76 76 76 76
15 17 18 20 22 24 26 27 28 30 30 30 30 30 29 29 29 29 29 28 28 28 28 28 28 27 27 27 27 28 28 29 29 30 30 31 32 33 35 36 38 39 41 42 42 42 42 41 41 40 39 38 38 38 38 40 41 43 45 46 48 50 52 54 55 57 57 56 55 56 58 56 56 60 62 64 66 68 70 72 74 75 76 77 77 78 78 78
15 15 15 17 19 21 22 23 25 27 28 28 29 28 28 28 28 28 28 27 27 27 27 26 26 25 25 25 26 26 27 27 28 28 29 30 31 33 34 36 38 39 40 40 40 40 40 40 39 38 37 37 37 38 39 41 43 44 46 47 48 49 52 54 56 56 56 55 55 56 59 59 59 62 65 67 69 71 73 75 76 77 77 78 79 79 80 80
14 15 15 16 17 17 18 20 22 24 25 26 27 27 27 27 27 26 26 26 25 25 24 24 24 23 24 24 24 25 25 26 26 27 29 30 31 33 34 36 37 38 38 38 39 39 39 38 38 37 37 36 37 38 40 42 44 45 46 48 49 49 51 53 54 55 55 56 56 58 61 62 62 65 68 70 72 74 76 77 78 78 79 79 80 81 81 81
12 14 15 16 16 16 16 18 19 21 22 22 23 24 25 25 24 24 23 23 22 22 22 21 22 22 22 23 23 24 24 25 26 27 29 30 31 32 34 35 36 36 37 37 38 39 38 38 37 36 36 37 38 39 41 43 45 46 47 49 50 50 52 53 54 55 56 57 58 59 63 65 65 68 72 73 74 76 77 77 78 79 80 81 82 82 82 81
12 14 16 16 16 16 16 17 18 19 19 20 21 22 23 23 22 21 20 20 20 21 21 21 21 21 22 22 23 23 24 25 26 27 28 29 30 31 33 35 35 36 37 38 38 38 38 37 37 37 37 38 39 41 43 45 46 47 49 50 52 53 54 55 55 57 58 59 60 62 66 69 69 71 75 76 77 77 78 78 79 80 81 82 82 81 80 79
13 14 15 16 16 17 17 18 18 18 19 20 20 21 22 23 23 21 21 21 22 22 22 22 21 21 21 22 22 23 23 24 25 26 27 28 29 31 33 34 35 36 37 38 39 39 38 37 37 37 38 39 41 43 44 46 47 49 51 52 54 55 55 56 57 59 60 62 64 66 69 72 73 73 75 77 78 78 78 79 81 82 82 82 81 79 77 77
11 14 15 16 17 18 19 20 20 21 21 22 22 23 23 23 23 24 24 24 23 23 23 22 22 22 22 22 23 23 24 25 26 26 27 28 30 32 33 34 35 36 37 38 38 38 37 37 37 38 39 41 43 44 45 46 48 51 52 54 55 57 57 57 59 60 63 65 67 69 72 74 74 75 76 77 77 78 79 80 81 82 81 80 78 77 76 77
10 13 15 17 18 20 21 22 23 23 24 24 24 24 24 23 23 24 25 25 24 24 24 23 23 23 23 24 24 25 26 26 27 28 29 30 31 33 34 34 35 36 37 38 38 38 37 37 37 38 40 42 43 44 46 48 50 52 53 54 56 58 59 59 61 62 65 68 71 72 75 76 76 77 77 77 78 79 81 81 81 81 80 78 77 76 76 76
10 12 15 18 19 20 22 23 24 24 24 24 24 24 23 22 22 23 24 24 23 23 23 23 23 23 24 25 25 26 27 28 29 30 31 31 33 34 35 35 36 37 38 38 38 38 38 38 38 39 41 42 44 45 47 49 51 53 54 56 57 58 61 62 63 65 66 70 72 74 77 79 78 78 79 79 80 81 82 81 80 79 78 76 76 76 76 75
12 14 16 19 21 23 24 25 24 24 25 25 25 25 23 21 21 22 23 23 22 22 23 23 23 23 24 26 27 28 28 29 30 31 32 33 34 35 35 36 37 38 38 38 39 39 38 38 39 40 41 43 45 47 49 50 52 54 55 57 58 59 61 64 65 67 68 70 73 75 78 81 79 79 81 82 82 82 81 80 78 77 77 76 76 75 74 73
15 16 18 19 22 25 27 27 26 26 26 27 27 27 26 22 21 24 24 23 23 23 23 24 24 25 26 27 28 29 29 30 31 32 33 34 35 36 36 37 37 38 39 39 39 40 40 40 41 42 43 44 46 48 50 52 53 55 56 57 59 60 61 65 67 69 69 70 72 74 77 81 81 80 82 83 82 82 80 78 77 76 77 76 75 74 72 70
17 18 20 21 23 26 29 31 30 28 28 28 28 29 29 25 24 26 26 25 25 24 24 24 25 26 26 27 28 29 30 31 32 33 34 35 36 37 37 38 38 39 40 40 40 40 40 41 42 43 44 45 47 49 51 53 54 55 56 57 59 61 62 64 68 71 73 73 73 73 75 80 83 81 82 83 81 79 78 76 76 76 76 75 74 71 69 67
19 19 21 23 24 25 28 32 32 31 30 30 30 31 30 26 25 28 28 26 26 25 24 24 25 26 27 28 29 30 30 32 33 34 36 36 37 38 39 39 40 40 41 41 41 41 41 42 43 44 45 47 49 51 52 54 55 56 57 58 60 63 64 66 68 71 75 77 76 75 75 80 83 81 81 81 79 77 76 76 77 76 74 73 71 69 66 63
21 22 22 24 26 26 26 30 33 32 31 31 31 32 31 28 28 29 28 27 27 25 23 23 24 26 28 30 31 31 32 34 34 36 37 37 38 39 40 41 41 41 42 42 42 42 42 43 44 45 47 49 50 52 54 55 56 58 59 61 62 64 67 69 71 73 76 78 79 79 77 78 82 80 78 78 78 77 77 77 76 74 72 70 68 66 63 59
23 24 24 25 27 27 27 29 32 32 31 32 33 34 33 31 30 30 28 27 26 25 25 25 26 28 30 31 33 34 35 36 36 38 39 38 39 40 41 42 42 43 43 43 43 43 43 44 45 46 48 50 51 53 55 56 57 59 61 63 64 66 68 71 73 75 77 79 80 81 80 78 79 78 76 77 77 77 77 76 74 71 68 66 64 61 56 51
25 26 27 27 28 28 29 30 31 31 31 33 34 34 33 31 30 29 27 27 26 26 26 28 30 32 32 33 35 36 36 37 38 40 40 39 40 42 43 44 44 44 45 44 44 44 45 46 47 48 49 51 53 54 56 57 58 60 62 64 65 68 70 72 74 76 78 80 81 82 81 79 78 76 74 75 77 78 76 73 70 67 64 61 57 52 48 46
26 27 28 29 29 29 30 30 31 32 33 32 30 31 31 31 30 28 28 27 26 27 29 31 33 34 35 35 36 37 38 39 40 41 41 40 42 43 44 45 45 45 46 46 46 46 47 47 48 50 51 52 54 56 58 59 60 62 63 65 67 69 70 72 74 76 79 81 82 82 80 78 76 75 74 74 75 75 72 69 65 61 56 52 49 47 45 46
25 27 28 29 29 29 30 31 32 33 33 30 27 28 30 30 29 29 28 27 27 30 32 34 36 36 36 37 38 39 39 41 41 42 41 42 43 44 45 46 46 47 47 47 47 48 48 49 50 51 53 54 56 58 59 61 62 64 66 67 68 69 71 73 75 76 78 80 80 80 79 77 75 74 74 73 71 69 66 62 57 52 48 46 46 46 47 49
21 23 24 26 27 28 30 31 32 30 29 28 28 28 29 29 28 28 28 28 30 33 35 36 36 37 38 39 40 40 40 41 42 41 42 43 44 46 46 46 47 48 48 48 48 49 50 51 52 53 54 56 58 60 61 63 64 66 67 68 69 70 71 73 75 76 76 77 79 78 78 77 75 73 72 68 65 62 57 52 48 46 46 46 48 50 52 53
17 18 20 21 24 26 28 30 30 28 27 27 29 29 28 28 28 29 29 30 33 36 36 37 38 39 40 40 40 41 41 41 41 41 42 44 45 47 47 47 48 49 49 50 50 51 52 53 54 55 56 58 60 62 63 65 67 68 68 69 69 70 71 73 74 74 74 74 75 76 76 77 75 71 67 62 58 54 48 44 44 45 48 50 52 55 56 57
16 16 17 19 21 24 26 28 28 28 28 29 31 32 31 29 29 29 30 32 35 38 38 38 39 40 41 41 41 41 41 41 41 42 43 45 47 47 48 48 49 49 50 50 51 52 54 55 56 57 59 60 62 64 65 67 68 69 70 70 71 72 71 71 71 71 70 70 72 74 74 75 73 67 60 55 51 47 43 43 45 47 51 54 56 57 59 60
16 16 16 18 21 23 26 27 27 29 31 32 32 32 31 29 29 30 32 35 37 39 39 39 41 41 41 41 41 41 40 40 41 43 45 47 48 48 49 50 51 51 51 50 51 52 54 57 59 59 61 62 64 66 67 67 68 70 71 72 73 73 72 70 69 68 67 67 70 72 71 70 67 59 52 48 47 45 44 46 49 51 53 55 56 58 60 62
17 16 17 18 21 24 26 27 28 31 33 30 27 26 27 28 30 32 34 37 39 41 41 41 41 41 41 41 41 41 40 41 43 45 46 47 48 49 50 51 52 52 52 52 52 53 55 57 60 61 63 64 65 67 68 68 69 71 73 73 74 73 73 71 69 68 65 65 67 68 67 65 58 50 46 45 46 45 46 51 54 55 55 55 56 58 59 62
18 17 18 19 21 24 25 27 29 31 31 28 24 24 26 28 31 34 37 40 41 42 42 41 40 40 40 41 41 41 41 41 44 46 47 48 48 49 51 52 52 53 53 53 54 54 56 58 61 64 65 66 67 68 69 70 70 72 73 73 73 71 71 70 68 68 66 63 61 60 60 58 50 46 45 46 47 48 51 54 56 57 57 56 56 56 58 62
19 19 19 20 21 23 24 25 27 28 29 29 28 28 29 30 34 37 39 40 41 41 40 40 39 39 40 41 41 42 42 42 45 46 47 48 49 50 52 52 53 54 54 55 56 56 57 59 62 65 66 67 68 69 70 72 72 72 73 73 72 69 68 68 66 67 65 59 52 50 52 51 46 45 46 48 50 52 54 56 58 59 58 57 56 56 59 62
20 20 20 21 21 22 23 24 26 28 30 30 30 31 32 34 36 37 38 38 38 38 38 38 39 39 40 40 41 43 43 44 45 46 47 48 50 51 53 53 54 55 56 56 57 58 59 60 63 67 68 68 69 70 71 72 72 72 72 72 70 67 65 65 64 63 59 50 42 42 48 48 45 46 48 50 53 54 55 58 59 60 60 58 58 58 61 64
20 20 21 22 22 22 24 26 28 30 32 31 32 34 36 36 36 36 36 35 34 36 37 38 39 38 39 40 42 43 44 45 46 47 47 49 51 52 53 54 55 56 57 58 59 60 60 60 62 67 69 69 70 71 71 72 72 71 71 71 69 66 64 62 60 58 50 41 35 37 48 51 48 48 49 51 54 56 56 58 59 60 61 60 60 61 63 66
21 21 22 22 22 23 25 27 28 31 32 33 33 35 35 34 34 33 32 32 34 36 37 37 37 37 39 40 42 43 44 45 47 48 49 50 52 53 54 55 55 57 58 59 60 61 62 61 61 66 69 69 70 70 71 71 70 69 69 69 67 64 62 57 53 51 45 38 35 38 48 54 51 51 52 52 55 57 56 56 58 60 63 64 64 65 66 69
22 22 23 23 24 26 28 29 29 30 30 31 32 33 32 32 31 30 31 33 36 36 36 36 36 37 39 41 42 43 45 46 48 49 50 51 52 54 55 56 56 57 58 60 61 61 62 62 62 65 68 69 69 70 70 69 68 67 67 67 65 61 56 48 44 46 44 41 39 40 49 56 54 54 55 53 54 57 57 58 60 63 66 68 69 70 71 74
22 23 23 24 26 28 29 30 30 29 27 28 29 30 30 30 30 32 34 36 37 36 36 36 37 38 39 41 43 45 45 47 49 50 51 52 54 54 55 56 57 58 59 60 61 62 62 62 62 64 66 67 69 69 68 67 66 65 65 65 62 55 48 42 40 43 45 44 43 42 47 56 57 56 56 54 55 58 61 63 64 66 69 71 71 73 76 79
22 22 24 25 28 29 29 29 29 29 28 27 28 29 29 31 32 34 35 36 36 36 36 36 38 40 41 43 45 46 47 48 49 51 52 53 55 55 55 57 58 58 59 60 61 62 61 61 61 62 64 66 67 67 66 64 63 63 64 61 54 46 42 42 41 43 44 45 45 43 45 54 58 57 56 56 58 61 64 67 68 69 71 73 74 76 78 82
22 22 23 25 27 28 28 28 28 28 28 28 29 30 31 33 34 34 35 35 35 36 37 38 40 42 43 45 46 48 49 49 49 52 53 54 55 56 56 57 58 59 59 59 60 61 61 60 60 59 59 62 66 67 65 63 62 62 59 52 44 41 42 43 43 44 45 46 48 46 44 50 57 58 58 59 61 64 67 70 72 72 73 75 76 78 80 83
21 22 23 24 26 27 28 29 30 31 31 32 33 34 33 33 34 34 34 35 35 37 38 40 42 44 45 47 49 49 50 50 50 52 54 55 55 56 57 57 58 58 59 58 59 59 59 60 60 57 55 55 58 61 61 61 59 56 51 44 41 42 44 44 44 46 47 47 51 50 46 48 57 60 60 62 64 66 69 73 76 77 78 79 80 81 83 85
21 22 23 24 25 27 29 32 33 34 34 35 35 34 32 32 33 34 35 35 36 38 40 42 44 45 47 49 51 51 51 52 51 52 54 55 55 56 56 57 57 57 58 58 58 58 57 58 59 58 55 54 54 54 52 50 48 46 43 41 42 44 46 46 46 47 47 47 51 54 50 49 56 61 62 65 68 69 71 73 77 80 81 83 83 84 86 88
21 22 24 25 25 27 28 30 32 32 33 33 32 32 32 32 33 34 35 37 39 41 42 45 46 47 49 51 52 52 53 53 53 54 55 55 55 55 55 55 56 56 57 57 56 56 54 55 57 57 56 57 57 53 45 39 38 40 41 41 43 45 47 48 47 48 49 48 49 55 55 52 56 61 64 67 69 71 73 75 78 80 82 84 85 86 89 91
21 22 24 25 25 26 27 28 29 30 30 30 31 31 31 32 34 36 37 39 41 43 44 46 47 49 51 52 52 53 53 54 54 54 54 54 54 54 54 54 55 55 56 55 54 54 51 51 54 54 55 57 54 47 41 37 38 41 42 42 44 47 48 50 50 50 51 51 51 55 59 59 60 63 66 70 72 74 76 78 80 82 84 86 87 88 91 94
21 21 22 23 24 25 25 26 27 28 29 30 30 31 32 33 35 37 40 41 43 44 45 48 50 51 53 53 53 53 53 54 54 54 53 52 53 53 53 53 53 53 54 53 52 51 48 49 50 50 52 54 47 40 39 41 42 44 44 44 46 48 50 52 54 53 54 56 56 57 61 64 66 67 70 73 76 78 79 81 83 85 88 89 90 92 94 97
18 19 19 20 21 23 24 25 26 27 28 30 31 32 33 35 37 39 41 43 44 46 47 50 52 53 53 53 53 52 52 52 52 52 52 52 52 51 51 52 52 52 51 50 49 49 47 46 45 42 43 46 44 40 41 43 45 47 47 47 47 50 52 54 56 58 58 60 61 62 63 66 70 72 73 76 80 82 83 85 87 89 91 93 95 95 97 99
16 17 18 19 20 22 24 25 27 28 29 31 32 34 35 37 39 40 42 44 46 48 50 51 52 52 52 52 52 51 50 50 50 50 50 50 50 50 50 50 50 49 49 48 47 47 43 39 37 34 35 41 43 43 44 46 47 48 49 49 50 52 54 56 59 62 63 63 65 66 67 68 72 75 77 79 82 85 86 88 90 92 94 96 98 99 100 102
16 17 18 20 22 24 26 28 29 30 31 33 34 36 37 39 40 42 44 46 48 49 51 51 51 51 51 50 50 49 49 48 48 48 48 48 48 48 47 47 46 46 46 45 43 40 36 32 32 32 34 39 43 44 46 48 49 49 49 50 53 55 57 59 62 65 67 67 68 70 71 72 74 77 79 81 84 88 91 93 95 96 96 97 100 102 104 106
17 19 20 22 24 27 28 29 31 32 33 34 35 37 39 41 42 44 46 48 49 49 50 50 49 49 48 48 48 47 47 47 47 47 47 47 46 45 44 44 45 44 41 38 35 33 32 31 32 34 36 40 43 45 47 49 49 50 51 53 55 58 60 62 65 69 71 72 73 74 76 77 79 81 82 83 85 88 92 95 98 101 101 100 102 105 108 110
Wind_Direction
210 206 204 205 207 206 206 207 208 208 209 211 214 217 220 222 224 226 228 229 231 233 235 237 239 241 244 246 248 251 253 255 257 260 262 264 266 269 271 273 275 277 279 280 282 284 286 287 289 290 291 292 293 294 295 296 297 298 299 300 301 301 301 301 301 302 304 306 307 307 307 308 309 309 309 310 309 308 307 305 303 302 302 301 301 301 300 300
207 203 201 202 203 203 204 206 207 207 209 211 214 217 220 223 226 228 229 231 233 235 237 239 241 243 246 249 251 254 256 259 261 263 266 268 270 272 274 276 278 279 281 283 284 286 287 289 290 291 293 294 295 296 296 297 298 299 301 301 302 302 301 302 303 305 308 308 308 309 310 310 311 311 310 310 309 307 306 305 304 304 303 303 302 302 302 301
199 198 197 198 199 201 202 204 206 207 208 211 215 218 220 223 226 229 231 233 235 238 240 242 244 246 248 251 253 256 259 262 264 266 269 271 273 275 277 279 280 282 284 285 287 288 290 291 292 293 294 295 296 297 298 299 300 301 301 302 302 302 302 304 307 308 309 309 310 312 312 312 311 311 311 310 308 307 307 306 305 305 304 303 303 303 302 302
186 189 192 194 196 198 200 202 204 206 208 211 215 218 221 224 227 229 232 235 237 240 242 245 247 249 251 253 256 258 261 264 267 269 271 273 275 277 278 280 282 284 286 287 289 290 291 292 293 294 295 296 297 299 300 301 301 302 302 302 302 303 305 308 309 309 310 311 313 313 312 312 311 311 310 309 308 308 307 307 306 305 304 304 303 304 304 304
171 178 183 189 192 196 199 200 202 204 207 211 215 219 221 225 228 230 233 236 239 242 244 247 249 251 254 256 258 261 263 266 268 270 272 274 276 278 280 281 283 285 287 288 289 291 292 293 294 295 296 298 300 301 302 302 302 302 302 302 304 307 309 309 310 311 312 313 313 312 311 311 311 310 309 309 308 308 307 306 306 305 304 304 304 305 306 306
159 166 175 182 189 194 197 199 201 204 207 211 215 219 223 226 229 232 234 237 240 243 246 249 251 254 256 258 261 263 265 267 269 271 273 275 277 279 280 282 284 285 287 289 290 291 293 294 296 298 299 301 301 302 302 302 302 302 303 305 307 309 310 310 312 313 313 312 311 311 311 311 310 309 308 308 307 307 306 306 305 305 305 305 306 307 307 308
155 162 170 178 185 192 196 199 201 204 207 211 215 220 223 227 230 233 236 239 242 245 248 251 253 256 258 260 262 264 266 268 270 272 274 276 278 279 281 283 285 286 288 289 291 293 295 297 299 300 301 301 302 302 302 302 302 303 305 308 310 310 311 312 313 312 311 310 310 311 311 310 309 308 308 307 307 306 306 306 306 306 306 307 307 308 308 309
157 164 171 176 182 188 194 198 201 204 207 212 216 220 224 227 231 234 237 240 243 246 249 252 254 256 258 261 262 264 266 269 270 273 274 276 278 280 282 284 285 287 288 290 292 295 297 299 300 300 301 302 302 302 302 302 304 306 308 310 310 311 312 312 311 311 310 311 311 311 311 310 309 308 308 307 307 306 306 307 307 308 308 308 309 309 309 310
159 166 173 179 182 188 194 199 203 205 208 212 216 220 224 228 231 235 238 241 244 247 249 252 254 256 258 260 263 265 267 269 271 273 275 277 279 281 283 285 287 288 290 292 294 296 298 299 300 301 302 302 302 302 302 304 306 308 309 310 311 312 312 311 311 311 311 312 312 311 311 311 309 308 307 307 307 307 308 309 309 309 310 310 310 310 311 311
163 170 176 181 184 190 197 202 206 209 209 212 217 221 225 228 232 235 238 241 244 246 248 251 253 255 258 260 263 265 267 269 271 273 275 277 279 282 284 285 287 290 292 294 295 297 298 300 301 301 302 302 301 302 303 304 306 308 309 311 311 311 311 311 311 312 312 312 312 311 311 311 310 308 307 307 308 309 310 311 311 311 311 312 312 312 312 312
169 174 179 185 188 193 200 205 208 211 212 213 217 222 225 229 232 234 237 239 242 245 247 249 252 254 257 260 263 266 268 270 272 274 277 279 281 283 285 286 288 290 292 294 296 298 299 300 300 300 301 300 301 301 303 304 306 308 309 310 311 311 311 311 312 312 312 312 311 311 310 311 310 308 308 309 310 311 312 313 313 313 313 313 313 313 313 313
173 176 180 188 192 197 203 208 209 210 212 214 218 222 225 227 229 232 234 238 241 243 246 248 251 254 257 261 263 266 268 271 273 276 279 281 283 285 287 289 291 293 294 296 297 298 299 299 299 300 300 300 300 301 302 304 306 307 308 309 310 311 311 312 312 312 312 311 311 311 310 311 311 310 310 311 312 313 314 315 315 315 315 314 314 314 314 314
182 184 189 194 197 200 204 208 210 210 212 215 218 221 223 226 228 231 234 237 240 242 245 248 251 255 258 261 263 266 269 272 275 278 281 283 285 287 289 292 294 295 296 297 298 298 299 299 300 300 299 299 299 301 303 304 305 306 307 308 310 311 311 311 311 311 311 311 312 312 310 312 313 312 312 313 314 315 316 316 316 316 315 315 315 315 314 314
196 198 201 205 207 207 207 208 210 212 214 216 219 222 224 227 230 233 235 237 240 243 246 250 253 256 259 262 264 267 271 274 277 280 283 285 287 289 291 293 295 296 297 298 298 299 299 300 300 299 298 298 300 301 303 304 305 306 307 309 310 311 310 310 310 310 311 312 313 313 311 312 314 314 314 315 316 317 317 317 316 316 316 316 315 315 314 314
207 212 213 214 218 219 216 214 214 215 216 217 220 224 227 229 231 233 236 238 241 244 246 249 252 255 258 261 265 268 272 275 279 282 284 287 289 291 293 294 295 295 297 298 299 300 300 300 299 298 297 299 300 302 303 303 305 306 308 309 309 309 309 308 309 310 312 313 314 314 313 313 315 315 315 316 317 317 317 317 316 316 316 316 315 315 315 315
205 213 220 221 224 224 222 221 219 217 216 215 218 225 228 229 229 230 234 236 238 241 244 247 251 255 258 262 266 270 274 277 281 283 286 288 290 294 297 297 297 297 299 300 301 301 300 299 298 298 298 300 301 302 303 304 306 308 309 309 308 308 308 309 311 313 314 314 315 315 314 314 315 316 316 317 318 318 317 317 316 316 316 315 315 315 316 316
201 202 213 219 221 224 224 223 221 217 214 213 216 223 229 230 228 225 228 233 237 241 245 249 253 258 262 265 269 273 276 280 283 285 287 289 293 298 300 300 300 301 302 303 303 302 301 300 299 299 300 300 301 303 304 305 307 308 308 308 308 309 310 312 314 315 316 315 316 316 315 315 316 317 317 317 317 317 317 316 316 316 315 315 316 316 317 317
213 202 206 213 216 221 224 222 220 217 215 214 215 222 228 231 233 232 234 238 241 246 250 253 258 262 264 266 270 274 278 281 285 287 289 292 296 300 301 301 301 302 303 303 302 301 300 299 299 299 300 301 302 303 304 305 307 308 309 309 310 311 313 314 315 316 317 316 317 317 316 315 316 317 317 317 317 316 316 316 316 315 316 316 317 317 317 318
235 223 216 216 216 219 224 224 222 221 221 218 217 222 228 233 237 240 241 243 246 250 255 257 261 265 266 268 271 275 279 283 286 288 292 295 299 301 303 302 302 302 302 302 301 300 298 298 298 298 299 300 301 303 304 305 307 309 310 310 312 313 314 315 316 316 317 317 317 317 316 316 317 317 317 317 316 316 316 316 316 316 317 317 318 318 318 319
245 243 234 228 225 225 227 226 225 225 225 222 221 223 227 232 236 240 242 244 247 253 258 262 264 266 268 270 275 279 281 284 287 290 293 297 299 302 304 303 303 303 303 303 301 299 298 297 297 297 299 301 302 304 305 307 309 310 311 311 312 314 314 315 316 316 317 317 317 318 317 316 318 318 317 317 316 316 316 316 317 317 317 318 318 318 319 320
240 247 245 240 234 232 233 231 227 225 224 224 223 223 225 229 237 242 243 245 249 257 263 265 265 266 268 272 277 280 282 284 287 290 294 296 298 301 304 304 304 304 304 303 301 299 298 297 298 299 301 302 304 305 307 308 310 310 311 312 313 314 314 315 315 316 317 317 317 318 317 317 318 318 317 316 316 316 317 317 318 318 318 318 318 319 320 320
238 244 249 248 242 237 236 236 233 227 225 225 225 226 225 228 241 246 246 248 252 261 269 269 268 268 271 274 277 280 282 284 287 290 293 295 298 301 304 304 304 304 304 303 301 299 299 299 300 301 303 304 305 306 308 309 310 310 311 312 312 313 314 315 315 316 316 317 317 318 318 317 317 317 316 316 317 317 317 318 318 318 318 318 319 320 320 321
244 245 249 252 250 243 238 238 238 233 229 227 227 229 227 231 245 249 248 250 255 265 273 273 271 271 272 274 276 279 281 283 287 290 293 295 298 302 304 305 304 304 303 302 301 300 300 300 301 303 304 305 306 307 308 309 309 310 311 311 311 312 313 314 315 315 316 316 317 318 318 316 315 316 316 316 317 317 318 318 318 318 319 319 319 320 320 320
251 249 251 253 253 251 244 241 241 237 233 231 229 229 230 238 252 254 252 253 258 267 272 272 272 272 273 274 275 278 281 285 289 291 293 295 298 302 305 305 304 303 303 302 301 300 299 300 302 303 304 306 307 308 309 309 310 310 311 311 312 313 314 314 315 315 316 317 317 317 318 316 315 316 316 316 317 318 318 318 318 319 319 320 320 320 320 320
254 251 252 254 254 254 250 245 243 241 236 234 233 232 232 241 250 252 254 257 260 265 269 272 275 276 276 276 277 279 283 287 290 292 294 296 299 302 304 304 304 303 302 302 301 300 300 301 302 304 305 306 307 308 309 310 311 312 312 313 313 314 314 315 315 316 316 317 317 317 317 316 314 316 317 317 318 318 318 318 319 320 320 320 320 319 320 320
255 252 251 253 254 253 249 245 245 244 238 234 235 235 236 241 245 248 254 258 260 262 266 274 279 281 281 280 281 282 284 287 291 294 295 296 299 302 304 304 303 303 302 302 301 300 301 302 303 304 306 307 308 309 310 311 312 313 313 313 314 314 314 315 315 316 316 316 316 316 316 316 315 317 318 318 318 318 318 319 320 320 320 320 320 320 321 322
258 254 251 251 252 251 247 244 243 243 241 238 238 240 241 243 244 247 253 257 259 261 268 276 281 283 283 282 283 284 285 287 291 294 295 296 299 302 303 303 303 303 302 302 301 301 302 303 304 305 306 307 308 310 311 312 313 313 313 314 314 314 314 315 315 316 316 316 316 315 316 317 317 318 319 318 318 318 319 320 320 320 321 321 322 323 325 326
259 254 251 249 249 247 243 241 239 238 240 242 243 244 244 243 243 246 252 256 261 266 274 279 281 281 282 283 284 285 285 287 291 294 295 296 299 301 303 303 303 303 302 302 302 302 303 303 304 305 306 308 309 311 312 312 313 313 313 314 314 314 314 315 315 316 316 316 315 315 316 317 317 318 318 318 318 319 319 320 321 321 322 324 326 327 329 328
259 252 249 246 245 242 238 237 237 237 240 243 244 245 244 243 243 245 251 259 267 275 278 278 278 278 280 282 284 285 285 287 290 293 294 296 299 301 302 303 303 303 303 302 302 302 303 304 305 306 307 308 310 311 312 312 313 313 313 313 313 314 314 315 316 316 316 316 315 316 316 316 317 317 317 318 319 318 319 321 323 324 326 328 329 329 329 328
256 250 246 243 240 238 236 236 238 239 241 241 243 245 245 244 245 246 254 264 273 277 275 274 275 277 280 283 284 285 286 288 290 293 295 297 300 302 303 303 303 303 303 302 302 303 303 305 306 307 308 309 310 311 312 312 312 312 312 312 313 314 315 315 315 315 316 316 316 316 316 316 316 317 318 320 319 318 321 325 326 328 328 329 329 328 328 328
255 247 243 240 237 235 234 235 237 239 239 242 246 249 249 249 249 250 258 269 273 273 271 272 274 277 281 283 284 285 287 289 292 294 296 299 301 302 303 303 303 303 303 303 303 304 305 306 307 308 308 309 310 311 311 311 311 311 311 312 313 314 315 315 315 316 316 316 316 315 316 316 316 317 320 321 320 321 326 329 330 330 328 328 329 328 328 328
258 248 242 238 235 233 233 234 234 234 236 240 245 249 252 253 251 254 263 269 269 268 269 272 275 278 281 283 284 285 287 290 293 296 298 301 302 303 303 303 303 303 303 303 304 305 306 307 307 308 308 309 310 310 310 310 310 311 312 313 313 314 314 314 315 316 316 317 316 315 316 316 315 319 324 324 322 326 330 331 331 330 328 328 329 328 328 327
261 251 244 238 234 231 231 232 230 229 234 240 246 250 253 253 254 259 265 265 264 266 268 271 276 280 282 283 284 285 288 292 295 298 300 302 303 303 303 303 303 303 303 304 304 305 306 307 307 308 308 309 309 309 310 310 311 312 313 313 314 314 314 315 315 316 317 318 317 317 318 316 317 324 328 326 326 330 331 330 329 329 328 329 328 328 327 327
260 251 243 237 232 229 229 230 228 228 233 240 249 256 256 256 258 260 260 260 262 265 268 272 277 281 282 283 284 286 290 294 297 299 301 303 303 303 303 303 304 304 304 304 305 305 306 307 307 308 308 308 309 309 310 311 312 313 313 314 314 315 315 316 317 317 318 320 319 320 319 316 322 332 331 328 330 330 329 328 327 327 328 328 328 328 328 326
255 248 241 236 232 229 229 228 227 229 232 235 238 243 247 251 253 254 255 259 263 267 271 275 279 281 283 283 284 287 292 296 299 301 302 303 303 302 302 303 304 304 304 304 305 306 306 307 307 307 308 308 309 310 311 312 313 313 313 314 314 315 316 317 319 319 320 322 322 322 318 318 330 338 332 330 330 327 326 325 325 326 326 327 328 328 327 326
249 244 239 236 233 231 230 229 228 231 234 234 233 235 239 243 247 250 255 260 266 271 275 278 280 282 284 284 286 290 295 298 300 301 302 303 302 302 302 303 304 303 304 304 305 306 306 307 307 307 307 309 310 311 312 313 314 314 314 314 314 316 317 319 321 320 321 324 326 323 317 320 334 337 331 329 326 325 325 324 324 324 325 327 328 327 326 326
244 240 237 235 233 231 231 230 230 232 234 236 238 240 242 245 249 254 260 267 273 277 278 280 282 284 285 286 289 293 297 299 300 301 302 302 301 301 303 304 303 303 304 304 305 306 306 307 307 307 308 310 311 312 313 313 314 314 314 314 315 317 319 321 322 320 322 328 331 324 315 321 334 333 328 327 324 324 325 324 324 324 325 328 327 327 328 327
239 237 235 234 233 231 230 230 233 234 235 237 240 242 245 250 256 263 269 275 279 281 282 283 285 286 286 288 292 296 298 300 300 301 301 301 301 302 303 303 303 303 304 304 305 305 306 308 308 308 309 311 312 313 313 313 313 314 315 315 315 318 322 324 322 320 326 333 335 328 317 321 331 329 326 327 324 324 325 325 326 325 325 327 327 328 329 328
234 233 233 233 231 229 228 230 234 237 237 239 242 244 249 257 264 271 276 280 283 284 285 285 285 287 289 292 295 297 299 300 300 301 302 302 302 303 303 303 303 304 304 304 305 306 307 309 310 309 310 311 312 312 312 313 314 315 315 315 317 322 325 325 322 323 331 336 336 333 321 320 328 327 325 327 324 324 326 326 326 325 325 327 328 330 330 329
230 229 231 232 230 228 228 230 235 239 240 243 247 250 256 263 269 274 278 282 285 285 285 285 286 288 292 295 297 298 300 300 301 302 303 303 303 303 303 303 303 304 304 304 305 306 308 310 311 310 310 311 312 312 312 314 314 315 315 316 320 325 325 326 326 327 333 334 334 334 324 320 325 326 326 328 327 326 327 326 326 326 327 329 331 331 331 331
227 226 228 231 231 232 233 234 238 243 247 250 253 258 263 268 273 277 280 283 284 284 284 286 289 292 294 296 298 299 301 301 302 302 303 303 303 303 303 303 304 304 304 305 305 307 309 310 311 311 311 312 312 312 313 314 315 316 316 318 323 327 326 328 330 329 330 332 331 333 326 322 324 326 327 329 328 327 327 326 327 328 329 331 332 332 331 331
224 224 226 231 234 237 240 241 245 250 254 257 260 264 269 274 278 280 282 282 282 284 286 289 292 294 296 297 299 301 301 302 302 302 303 303 303 303 304 304 304 304 304 305 306 308 309 310 311 311 312 313 313 313 313 314 316 318 318 321 326 328 327 328 330 328 328 329 328 330 328 323 323 325 328 329 328 328 327 326 327 328 329 332 333 333 331 331
221 222 226 231 236 241 245 249 253 256 260 264 268 271 275 279 280 280 279 279 282 285 288 291 293 295 296 298 300 301 302 302 302 302 302 303 303 304 304 304 304 304 305 306 307 308 309 310 310 311 313 314 314 313 313 315 319 319 319 323 329 328 326 328 328 327 328 327 325 327 329 324 321 324 328 329 329 329 328 327 326 327 330 332 333 332 331 330
220 221 224 230 235 241 247 251 255 259 264 268 271 273 276 276 276 275 276 279 283 287 289 291 292 294 297 299 301 301 302 302 302 302 302 303 303 304 304 304 305 306 306 307 307 308 310 311 311 312 312 312 311 311 314 318 320 319 321 327 330 327 325 327 326 326 327 326 324 325 329 326 321 324 328 328 329 330 330 327 325 326 329 332 332 332 330 329
223 222 225 230 235 239 244 248 253 258 262 265 268 269 270 270 271 273 277 281 285 288 290 291 292 295 297 299 301 301 302 302 303 303 302 303 304 304 304 305 306 306 307 307 308 310 312 313 313 313 313 311 310 311 315 319 319 319 322 328 328 325 324 325 325 324 325 325 323 322 327 327 322 324 329 328 328 330 330 327 325 325 328 330 331 330 329 328
225 226 229 232 236 239 242 247 251 255 259 262 264 264 265 267 272 276 281 284 287 288 289 291 293 296 298 299 301 301 302 302 303 303 303 303 304 304 305 305 306 306 307 308 310 312 314 314 313 314 315 313 313 316 320 322 320 320 324 327 326 323 323 322 322 323 323 324 323 321 325 328 323 324 328 327 328 329 329 327 324 323 326 329 329 329 328 328
225 228 231 234 238 241 244 248 251 254 257 259 261 263 266 271 276 280 283 285 287 289 290 292 294 296 297 299 300 301 302 302 303 303 303 304 304 304 305 306 306 308 309 310 312 313 314 315 314 315 316 314 315 320 324 325 323 323 325 327 325 322 322 321 321 322 322 324 325 324 325 327 325 326 328 327 328 329 328 326 323 323 325 327 328 327 327 327
226 230 235 239 242 245 248 251 253 255 257 259 262 267 271 275 279 282 284 286 288 289 291 293 295 296 297 299 300 301 302 303 303 304 304 304 304 305 306 307 308 309 310 311 312 313 316 316 315 317 316 314 317 323 326 325 324 324 326 327 325 322 322 321 321 322 323 324 326 327 327 326 326 327 329 328 328 329 328 326 323 322 325 327 327 327 327 327
230 235 240 244 247 250 252 255 256 256 258 261 265 270 274 279 282 284 286 288 289 290 292 293 295 297 299 300 302 303 303 303 304 304 304 305 306 307 308 309 310 310 311 312 314 315 318 318 317 319 318 316 319 325 325 324 325 325 326 327 325 323 322 322 322 322 323 325 327 328 328 327 326 327 329 328 328 328 327 325 322 322 325 327 327 327 327 326
234 238 243 247 250 252 254 256 257 258 261 265 270 276 280 284 286 287 288 289 290 292 293 295 297 299 301 302 303 303 303 303 303 304 305 306 307 308 309 310 310 311 312 314 317 318 320 320 319 322 321 317 320 325 324 324 325 326 327 327 325 323 323 323 322 321 322 325 327 327 328 328 326 327 329 328 328 328 327 324 322 322 325 326 326 325 325 324
238 243 247 249 251 254 256 258 260 264 269 273 277 282 285 287 288 288 289 290 292 294 296 298 300 301 302 302 302 303 303 304 305 306 306 307 308 309 310 310 310 312 315 318 320 320 320 322 323 324 322 319 321 324 323 323 325 326 327 326 323 323 324 324 323 320 320 324 326 326 327 327 326 327 328 328 328 327 327 324 321 322 325 325 324 324 324 324
246 249 252 253 254 257 260 263 267 272 276 279 282 285 287 288 289 290 292 293 295 297 299 300 300 301 301 302 303 304 305 306 306 307 307 308 309 309 310 311 313 316 319 321 321 320 322 324 323 323 323 321 322 324 322 321 323 325 326 325 323 323 325 325 323 319 319 323 325 326 327 327 326 327 328 328 328 327 326 323 320 321 324 324 323 323 323 323
Height
10688 10691 10695 10700 10704 10710 10716 10719 10723 10727 10731 10734 10736 10738 10740 10742 10744 10746 10748 10751 10753 10755 10756 10758 10759 10760 10761 10762 10763 10763 10763 10764 10764 10764 10764 10764 10763 10763 10762 10761 10760 10759 10758 10757 10756 10755 10754 10753 10752 10750 10749 10748 10746 10744 10742 10740 10738 10736 10733 10731 10729 10725 10723 10720 10718 10715 10712 10709 10706 10703 10700 10698 10695 10692 10689 10686 10683 10681 10678 10675 10672 10668 10664 10661 10657 10654 10650 10646
10687 10690 10694 10698 10703 10708 10713 10717 10722 10727 10730 10732 10735 10737 10739 10741 10743 10745 10748 10750 10752 10754 10755 10757 10758 10759 10760 10761 10761 10761 10761 10762 10762 10762 10762 10761 10761 10760 10759 10758 10757 10756 10755 10754 10753 10752 10751 10750 10748 10747 10745 10743 10742 10740 10738 10736 10734 10731 10729 10726 10724 10721 10718 10715 10713 10711 10708 10705 10701 10698 10695 10692 10689 10686 10684 10681 10678 10675 10673 10669 10666 10663 10659 10655 10652 10648 10644 10640
10687 10690 10693 10697 10702 10707 10711 10716 10721 10726 10729 10731 10733 10736 10738 10740 10742 10745 10747 10749 10751 10752 10754 10755 10756 10757 10758 10759 10759 10759 10759 10760 10760 10760 10760 10759 10758 10758 10757 10755 10754 10753 10752 10751 10749 10748 10747 10746 10744 10743 10741 10739 10737 10735 10733 10731 10729 10726 10724 10722 10719 10717 10714 10711 10708 10706 10704 10701 10697 10692 10689 10686 10684 10681 10678 10676 10673 10670 10667 10663 10660 10657 10653 10650 10646 10642 10638 10634
10688 10691 10694 10699 10703 10707 10711 10716 10720 10725 10728 10730 10732 10735 10737 10740 10742 10744 10746 10748 10750 10751 10753 10754 10755 10756 10757 10757 10758 10758 10758 10758 10758 10757 10757 10757 10756 10755 10754 10752 10751 10750 10748 10747 10746 10745 10743 10742 10740 10738 10737 10735 10733 10731 10729 10726 10724 10722 10719 10717 10715 10712 10709 10707 10704 10701 10698 10695 10692 10688 10684 10681 10678 10676 10673 10670 10667 10664 10661 10657 10654 10651 10648 10644 10641 10637 10632 10628
10690 10693 10697 10701 10705 10709 10712 10716 10720 10723 10726 10729 10732 10734 10737 10739 10741 10743 10746 10748 10749 10750 10751 10752 10753 10754 10755 10755 10756 10756 10756 10756 10755 10755 10755 10754 10753 10752 10751 10749 10748 10747 10745 10744 10743 10741 10740 10738 10737 10735 10733 10731 10728 10726 10724 10721 10719 10717 10714 10712 10710 10708 10705 10702 10699 10696 10693 10690 10688 10685 10680 10676 10673 10671 10668 10664 10661 10658 10655 10652 10649 10646 10642 10638 10634 10630 10626 10621
10694 10696 10700 10704 10707 10710 10713 10717 10720 10723 10726 10729 10731 10734 10736 10738 10740 10743 10745 10747 10748 10749 10750 10751 10752 10752 10753 10753 10753 10753 10753 10753 10753 10753 10752 10751 10750 10749 10748 10746 10745 10744 10743 10741 10740 10738 10736 10734 10733 10731 10729 10726 10724 10722 10719 10717 10714 10712 10710 10707 10705 10703 10700 10697 10694 10691 10689 10686 10683 10681 10677 10672 10668 10665 10662 10659 10656 10653 10649 10646 10643 10640 10636 10632 10628 10624 10619 10614
10697 10700 10703 10706 10710 10713 10715 10718 10720 10723 10726 10728 10731 10733 10735 10738 10740 10742 10744 10746 10747 10748 10749 10749 10750 10750 10751 10751 10751 10751 10751 10751 10750 10750 10749 10748 10747 10746 10745 10744 10742 10741 10740 10738 10736 10735 10733 10731 10729 10727 10725 10722 10720 10717 10715 10712 10710 10708 10705 10703 10700 10698 10696 10693 10690 10687 10685 10682 10679 10677 10673 10669 10664 10660 10657 10654 10651 10648 10644 10641 10637 10634 10630 10626 10621 10617 10612 10607
10701 10703 10705 10708 10711 10714 10716 10718 10720 10723 10725 10728 10730 10732 10735 10737 10739 10742 10743 10745 10746 10747 10747 10748 10748 10748 10748 10748 10748 10748 10748 10748 10748 10747 10747 10746 10745 10743 10742 10741 10740 10738 10737 10735 10733 10731 10729 10727 10725 10723 10721 10718 10716 10713 10710 10708 10706 10704 10701 10699 10696 10694 10691 10688 10686 10683 10680 10677 10673 10671 10669 10666 10661 10656 10653 10650 10647 10643 10639 10635 10632 10628 10624 10619 10614 10610 10605 10599
10704 10706 10708 10710 10712 10714 10716 10718 10720 10722 10725 10728 10730 10732 10735 10737 10739 10741 10743 10744 10745 10745 10746 10746 10746 10746 10746 10746 10746 10746 10746 10746 10745 10745 10744 10743 10742 10741 10740 10738 10737 10735 10734 10732 10730 10729 10726 10724 10722 10719 10717 10714 10712 10709 10707 10705 10702 10700 10697 10695 10692 10689 10686 10683 10681 10678 10675 10672 10668 10666 10664 10662 10657 10652 10649 10645 10642 10638 10634 10630 10626 10622 10617 10612 10607 10602 10597 10592
10706 10708 10710 10712 10714 10716 10717 10719 10721 10723 10725 10728 10730 10732 10734 10736 10738 10740 10741 10742 10743 10743 10744 10744 10744 10744 10744 10744 10744 10744 10744 10743 10743 10743 10742 10741 10740 10739 10738 10736 10735 10733 10731 10729 10728 10726 10723 10721 10718 10716 10713 10711 10709 10706 10704 10701 10699 10697 10694 10691 10688 10685 10682 10679 10676 10673 10671 10667 10664 10660 10658 10658 10653 10648 10644 10641 10637 10633 10628 10624 10619 10615 10610 10605 10599 10594 10589 10584
10708 10710 10712 10713 10715 10717 10719 10720 10722 10724 10726 10728 10730 10732 10734 10736 10737 10739 10740 10740 10741 10742 10742 10742 10742 10742 10743 10742 10742 10742 10741 10741 10741 10740 10739 10739 10738 10736 10735 10733 10732 10730 10728 10726 10724 10722 10720 10718 10715 10713 10710 10708 10706 10703 10701 10699 10696 10694 10691 10688 10685 10682 10678 10675 10672 10669 10667 10664 10660 10655 10652 10653 10649 10643 10639 10635 10631 10627 10622 10618 10612 10607 10602 10597 10591 10586 10581 10576
10710 10711 10713 10714 10716 10717 10719 10721 10723 10724 10726 10728 10730 10732 10733 10734 10735 10737 10738 10739 10739 10740 10740 10740 10740 10741 10741 10740 10740 10740 10739 10739 10738 10738 10737 10736 10735 10734 10732 10730 10729 10727 10725 10723 10721 10719 10717 10714 10712 10710 10707 10705 10703 10700 10698 10696 10693 10691 10688 10686 10683 10679 10675 10671 10668 10665 10663 10659 10656 10652 10647 10647 10645 10638 10634 10630 10625 10620 10616 10611 10605 10599 10594 10589 10583 10578 10573 10568
10711 10712 10713 10715 10716 10718 10719 10721 10723 10724 10726 10728 10729 10731 10732 10732 10734 10735 10736 10737 10738 10738 10738 10738 10738 10738 10739 10738 10738 10738 10737 10737 10736 10736 10735 10734 10733 10731 10729 10727 10725 10724 10722 10720 10718 10715 10714 10711 10709 10707 10704 10702 10700 10697 10695 10693 10691 10688 10686 10683 10681 10677 10673 10669 10665 10661 10659 10655 10652 10648 10641 10640 10640 10633 10628 10623 10619 10614 10608 10603 10597 10591 10586 10581 10575 10569 10564 10560
10711 10712 10713 10715 10716 10717 10719 10721 10722 10724 10725 10727 10728 10729 10730 10731 10733 10734 10735 10735 10736 10736 10736 10736 10736 10737 10737 10737 10736 10736 10735 10735 10734 10734 10732 10731 10730 10728 10727 10725 10723 10721 10719 10717 10715 10712 10710 10708 10706 10704 10701 10699 10697 10694 10692 10690 10688 10685 10683 10680 10677 10675 10672 10668 10664 10660 10656 10652 10648 10645 10637 10634 10633 10627 10622 10617 10612 10606 10601 10595 10589 10583 10578 10573 10567 10561 10556 10551
10711 10712 10713 10714 10716 10717 10719 10720 10721 10723 10724 10726 10727 10728 10729 10731 10732 10733 10733 10734 10734 10734 10734 10734 10735 10735 10735 10735 10734 10734 10734 10733 10732 10731 10730 10729 10727 10726 10724 10722 10720 10718 10716 10714 10712 10709 10707 10704 10702 10700 10698 10696 10694 10692 10689 10687 10685 10682 10680 10676 10674 10672 10669 10666 10662 10657 10652 10648 10644 10640 10633 10628 10627 10621 10615 10610 10605 10600 10594 10588 10582 10576 10570 10565 10559 10554 10548 10542
10711 10712 10713 10714 10715 10716 10718 10719 10720 10722 10723 10725 10726 10727 10728 10729 10730 10731 10732 10732 10732 10732 10732 10732 10733 10733 10733 10733 10732 10732 10732 10731 10730 10729 10728 10726 10725 10723 10720 10718 10716 10715 10713 10711 10708 10706 10703 10701 10699 10697 10695 10693 10691 10689 10686 10683 10681 10678 10676 10673 10670 10668 10665 10660 10657 10652 10647 10643 10639 10635 10628 10622 10620 10616 10607 10602 10598 10593 10587 10581 10575 10569 10563 10558 10552 10547 10541 10535
10710 10712 10713 10714 10715 10716 10717 10718 10720 10721 10723 10724 10725 10726 10726 10727 10729 10729 10729 10729 10730 10730 10730 10731 10731 10731 10731 10731 10730 10730 10729 10729 10728 10727 10725 10724 10722 10720 10718 10716 10713 10711 10709 10707 10704 10702 10700 10698 10695 10693 10691 10690 10688 10686 10683 10680 10677 10675 10672 10669 10665 10662 10659 10654 10650 10645 10640 10636 10633 10628 10622 10616 10614 10610 10603 10596 10591 10585 10580 10574 10568 10562 10557 10551 10545 10540 10534 10529
10710 10711 10712 10713 10714 10715 10716 10717 10719 10720 10721 10722 10724 10724 10725 10726 10727 10727 10728 10728 10728 10728 10729 10729 10729 10729 10729 10729 10728 10728 10727 10726 10725 10724 10723 10721 10720 10718 10716 10714 10711 10709 10706 10704 10701 10699 10697 10694 10692 10690 10688 10687 10684 10682 10680 10677 10674 10671 10668 10664 10659 10655 10653 10649 10644 10640 10635 10629 10627 10622 10616 10611 10607 10604 10599 10592 10586 10580 10573 10568 10561 10555 10549 10543 10538 10532 10527 10522
10710 10710 10711 10713 10714 10714 10715 10716 10717 10718 10719 10721 10722 10723 10723 10724 10725 10726 10726 10727 10727 10727 10727 10727 10727 10727 10727 10727 10726 10725 10724 10723 10722 10721 10720 10718 10717 10715 10713 10711 10709 10706 10704 10701 10699 10697 10694 10692 10690 10688 10686 10684 10681 10679 10676 10673 10670 10667 10663 10659 10655 10649 10645 10643 10640 10636 10631 10624 10619 10615 10608 10603 10601 10595 10590 10586 10580 10573 10567 10561 10554 10547 10542 10536 10531 10526 10521 10515
10709 10710 10710 10711 10713 10713 10714 10715 10716 10717 10718 10720 10721 10722 10722 10723 10724 10725 10725 10725 10725 10725 10725 10726 10726 10725 10725 10724 10724 10723 10722 10721 10720 10718 10717 10715 10714 10712 10710 10708 10705 10703 10701 10698 10696 10694 10692 10690 10687 10685 10683 10681 10678 10675 10672 10669 10666 10662 10659 10654 10651 10646 10640 10637 10634 10630 10627 10620 10613 10608 10600 10594 10593 10587 10580 10577 10572 10565 10559 10554 10547 10540 10535 10530 10525 10519 10514 10509
10709 10709 10709 10710 10711 10712 10713 10713 10715 10716 10717 10718 10719 10720 10721 10722 10723 10723 10723 10724 10724 10724 10724 10724 10724 10723 10723 10722 10721 10720 10719 10718 10717 10715 10714 10712 10711 10709 10707 10704 10702 10700 10697 10695 10693 10691 10688 10686 10684 10682 10680 10677 10674 10671 10668 10665 10662 10658 10654 10650 10646 10643 10637 10631 10628 10625 10622 10617 10610 10604 10595 10585 10585 10581 10573 10568 10564 10557 10552 10546 10540 10534 10528 10524 10518 10513 10507 10502
10708 10709 10709 10709 10710 10710 10711 10712 10713 10714 10715 10717 10718 10719 10719 10720 10721 10721 10722 10722 10722 10722 10722 10721 10721 10721 10720 10719 10718 10717 10716 10715 10714 10712 10711 10709 10708 10706 10704 10701 10699 10696 10694 10691 10689 10687 10685 10682 10680 10678 10676 10673 10670 10667 10664 10661 10658 10654 10650 10646 10642 10639 10635 10628 10622 10618 10616 10614 10608 10601 10592 10580 10577 10575 10567 10561 10556 10550 10544 10539 10534 10528 10522 10517 10512 10506 10501 10495
10707 10708 10708 10708 10708 10708 10709 10709 10710 10712 10713 10715 10716 10716 10717 10718 10718 10719 10720 10720 10720 10720 10720 10719 10719 10718 10718 10717 10716 10715 10713 10712 10711 10709 10708 10706 10705 10702 10700 10698 10695 10693 10690 10688 10686 10683 10681 10679 10676 10674 10672 10669 10666 10663 10660 10656 10654 10651 10646 10643 10638 10634 10631 10626 10619 10612 10607 10606 10604 10599 10592 10577 10570 10569 10561 10554 10550 10543 10538 10533 10527 10522 10516 10510 10505 10500 10495 10489
10706 10706 10706 10706 10705 10706 10706 10707 10708 10710 10711 10712 10713 10714 10715 10716 10716 10717 10717 10718 10718 10718 10718 10717 10716 10716 10715 10714 10713 10712 10711 10709 10708 10706 10705 10703 10701 10699 10697 10695 10692 10690 10687 10685 10682 10680 10678 10675 10673 10670 10668 10665 10662 10659 10656 10652 10648 10646 10642 10638 10634 10629 10624 10620 10616 10609 10601 10596 10593 10592 10589 10575 10563 10562 10557 10547 10543 10537 10532 10526 10520 10516 10510 10504 10498 10493 10489 10484
10703 10703 10703 10703 10703 10703 10704 10704 10705 10707 10709 10710 10711 10712 10713 10714 10714 10714 10715 10716 10716 10716 10715 10714 10714 10713 10713 10712 10710 10709 10708 10706 10705 10703 10701 10700 10698 10696 10694 10691 10689 10687 10684 10682 10679 10677 10674 10672 10669 10667 10664 10661 10658 10654 10651 10648 10644 10640 10636 10632 10628 10623 10618 10613 10608 10603 10596 10589 10583 10580 10582 10574 10560 10556 10552 10542 10535 10530 10525 10520 10514 10508 10503 10497 10492 10486 10482 10478
10700 10700 10700 10700 10700 10700 10701 10701 10702 10704 10706 10707 10708 10709 10710 10711 10712 10713 10714 10714 10714 10713 10712 10712 10711 10710 10710 10709 10707 10706 10705 10703 10702 10700 10698 10696 10694 10693 10691 10688 10686 10683 10681 10679 10676 10674 10671 10668 10666 10663 10660 10656 10654 10650 10646 10644 10640 10635 10631 10627 10622 10618 10612 10607 10601 10596 10590 10584 10578 10571 10569 10567 10556 10550 10544 10535 10528 10523 10518 10514 10508 10502 10496 10491 10486 10481 10477 10473
10696 10696 10696 10696 10696 10697 10698 10699 10700 10701 10703 10704 10705 10706 10707 10709 10710 10711 10712 10712 10711 10710 10710 10709 10709 10708 10707 10706 10705 10703 10702 10700 10699 10697 10695 10693 10691 10689 10687 10685 10683 10680 10677 10675 10672 10670 10667 10665 10662 10659 10656 10653 10649 10646 10642 10638 10635 10631 10626 10622 10618 10612 10607 10602 10596 10591 10583 10576 10570 10563 10559 10557 10550 10544 10540 10531 10522 10516 10511 10507 10502 10496 10491 10485 10481 10477 10472 10469
10692 10692 10692 10693 10693 10694 10695 10696 10698 10699 10700 10701 10703 10705 10706 10707 10708 10709 10710 10709 10708 10708 10707 10707 10706 10705 10704 10703 10702 10700 10699 10697 10696 10693 10692 10690 10688 10686 10684 10681 10679 10676 10673 10671 10668 10666 10663 10660 10658 10655 10652 10648 10645 10641 10637 10633 10630 10625 10621 10617 10613 10608 10603 10597 10591 10585 10578 10569 10563 10556 10551 10548 10543 10537 10534 10527 10519 10511 10505 10501 10496 10491 10486 10481 10477 10473 10470 10466
10688 10688 10688 10689 10690 10691 10692 10693 10695 10696 10698 10700 10701 10703 10704 10705 10706 10707 10707 10706 10705 10705 10705 10704 10703 10702 10701 10700 10699 10697 10696 10694 10692 10690 10688 10687 10684 10682 10680 10677 10675 10672 10669 10667 10664 10661 10659 10656 10653 10650 10647 10643 10640 10636 10632 10628 10624 10620 10616 10611 10607 10603 10598 10592 10586 10581 10574 10564 10556 10549 10543 10540 10537 10532 10526 10523 10516 10507 10502 10496 10490 10486 10482 10478 10474 10470 10467 10463
10685 10685 10685 10686 10687 10688 10689 10691 10692 10694 10696 10698 10699 10700 10702 10703 10704 10705 10704 10703 10703 10703 10702 10701 10700 10699 10698 10697 10695 10694 10692 10691 10689 10687 10685 10683 10681 10678 10676 10674 10671 10668 10665 10663 10660 10657 10654 10651 10648 10645 10642 10638 10635 10631 10627 10623 10619 10615 10611 10606 10601 10597 10593 10587 10581 10575 10569 10560 10550 10543 10537 10531 10530 10527 10521 10516 10510 10502 10498 10492 10486 10482 10478 10474 10471 10466 10462 10458
10683 10682 10682 10683 10684 10685 10687 10689 10690 10692 10694 10696 10698 10699 10700 10701 10702 10702 10701 10701 10701 10700 10699 10699 10697 10696 10695 10693 10692 10690 10689 10687 10686 10684 10682 10679 10677 10674 10672 10670 10667 10665 10662 10658 10656 10652 10649 10646 10643 10640 10637 10633 10630 10625 10622 10617 10613 10608 10605 10601 10597 10593 10589 10583 10577 10571 10565 10557 10547 10539 10532 10525 10521 10520 10516 10510 10503 10497 10494 10489 10484 10480 10474 10470 10466 10461 10457 10453
10680 10680 10680 10681 10682 10684 10685 10687 10689 10691 10693 10695 10696 10697 10698 10699 10699 10698 10699 10699 10698 10696 10696 10696 10694 10693 10692 10690 10689 10687 10686 10684 10682 10680 10678 10676 10673 10671 10668 10666 10663 10661 10658 10655 10651 10648 10644 10641 10638 10635 10631 10628 10624 10620 10616 10611 10607 10602 10598 10594 10590 10587 10584 10579 10574 10568 10561 10554 10543 10534 10528 10519 10513 10512 10509 10502 10497 10492 10489 10486 10482 10478 10472 10466 10461 10456 10452 10447
10678 10678 10678 10679 10681 10682 10684 10686 10688 10690 10692 10693 10694 10695 10696 10696 10696 10696 10697 10696 10694 10693 10693 10693 10691 10690 10689 10687 10685 10684 10683 10681 10679 10677 10675 10672 10670 10667 10664 10661 10658 10656 10653 10651 10648 10644 10641 10636 10632 10629 10626 10622 10618 10614 10610 10606 10601 10596 10591 10587 10582 10577 10574 10572 10568 10563 10558 10550 10538 10528 10521 10513 10508 10507 10503 10497 10492 10488 10485 10481 10477 10474 10469 10463 10457 10452 10447 10442
10676 10676 10677 10678 10679 10680 10682 10684 10686 10688 10690 10692 10693 10693 10693 10693 10693 10694 10693 10692 10691 10690 10690 10690 10689 10687 10685 10684 10682 10681 10680 10679 10675 10673 10671 10668 10666 10662 10659 10656 10654 10651 10648 10646 10644 10641 10637 10632 10627 10624 10620 10617 10613 10608 10603 10600 10596 10590 10584 10580 10575 10570 10564 10561 10558 10553 10551 10546 10534 10522 10513 10506 10504 10503 10497 10492 10488 10484 10481 10476 10472 10468 10464 10460 10454 10449 10443 10437
10674 10674 10675 10676 10677 10679 10681 10683 10685 10686 10688 10689 10690 10691 10691 10691 10691 10690 10689 10689 10688 10688 10687 10687 10686 10684 10682 10681 10679 10678 10677 10676 10672 10669 10667 10664 10662 10658 10655 10652 10649 10646 10643 10641 10639 10636 10634 10628 10622 10618 10614 10611 10607 10602 10597 10593 10590 10585 10579 10573 10569 10565 10558 10554 10550 10543 10540 10539 10531 10518 10507 10501 10501 10499 10493 10488 10484 10481 10477 10472 10468 10464 10460 10456 10451 10445 10439 10433
10672 10672 10673 10674 10676 10678 10679 10681 10683 10685 10686 10687 10687 10687 10688 10688 10687 10687 10687 10686 10686 10686 10685 10684 10682 10681 10679 10677 10676 10674 10673 10672 10669 10666 10663 10660 10657 10654 10650 10648 10645 10641 10639 10636 10633 10631 10629 10625 10618 10612 10608 10605 10601 10597 10591 10586 10582 10578 10573 10567 10562 10560 10554 10548 10544 10538 10533 10531 10526 10514 10502 10499 10500 10496 10490 10486 10481 10477 10473 10468 10463 10459 10455 10451 10446 10441 10434 10427
10670 10671 10671 10673 10674 10676 10678 10680 10681 10683 10683 10684 10685 10685 10685 10685 10684 10684 10684 10684 10684 10683 10682 10681 10679 10678 10677 10674 10673 10671 10670 10668 10665 10662 10660 10656 10653 10650 10647 10644 10641 10637 10634 10631 10628 10626 10624 10621 10614 10606 10602 10599 10594 10591 10585 10580 10575 10570 10565 10560 10555 10554 10550 10544 10538 10532 10529 10526 10521 10510 10497 10496 10499 10494 10488 10483 10477 10473 10469 10463 10458 10452 10448 10445 10440 10435 10428 10421
10668 10669 10670 10671 10673 10675 10676 10678 10679 10680 10681 10681 10682 10682 10682 10682 10682 10683 10682 10682 10682 10680 10679 10678 10677 10675 10674 10672 10670 10667 10666 10664 10661 10658 10656 10653 10649 10646 10643 10640 10637 10633 10630 10627 10624 10620 10618 10617 10612 10602 10596 10593 10589 10584 10580 10574 10569 10564 10559 10553 10548 10547 10544 10540 10532 10525 10524 10522 10518 10509 10493 10490 10496 10491 10485 10480 10473 10469 10465 10458 10453 10446 10442 10439 10435 10430 10422 10415
10666 10667 10669 10670 10672 10673 10675 10676 10677 10677 10678 10679 10679 10680 10680 10680 10681 10681 10680 10680 10679 10677 10676 10674 10674 10672 10670 10668 10667 10664 10662 10660 10656 10654 10652 10649 10645 10642 10639 10636 10632 10629 10626 10622 10619 10616 10612 10611 10609 10600 10591 10588 10583 10578 10573 10569 10563 10559 10553 10546 10543 10541 10538 10533 10525 10519 10518 10516 10514 10509 10491 10483 10489 10486 10480 10477 10469 10463 10460 10454 10449 10443 10436 10432 10428 10423 10416 10409
10664 10666 10667 10669 10670 10671 10672 10673 10674 10675 10676 10677 10677 10678 10678 10679 10679 10678 10678 10677 10675 10674 10673 10671 10670 10670 10667 10665 10663 10661 10659 10656 10652 10650 10647 10644 10641 10638 10634 10631 10628 10625 10621 10617 10613 10611 10607 10604 10602 10596 10587 10582 10578 10572 10567 10563 10558 10553 10547 10540 10538 10536 10532 10528 10522 10515 10512 10509 10508 10506 10490 10478 10482 10481 10474 10471 10465 10457 10453 10449 10444 10438 10431 10426 10420 10413 10407 10400
10663 10664 10666 10667 10668 10669 10670 10671 10672 10673 10674 10675 10676 10676 10677 10676 10676 10676 10675 10674 10672 10671 10669 10668 10667 10666 10664 10662 10659 10657 10655 10652 10648 10645 10643 10639 10636 10633 10630 10626 10623 10620 10617 10613 10608 10605 10602 10600 10596 10591 10583 10577 10571 10565 10560 10557 10552 10547 10541 10535 10533 10530 10525 10523 10520 10513 10508 10504 10502 10502 10490 10474 10473 10474 10468 10464 10460 10452 10446 10441 10437 10431 10424 10419 10414 10406 10397 10390
10662 10663 10664 10665 10666 10667 10668 10669 10670 10671 10672 10673 10674 10674 10674 10673 10673 10673 10671 10670 10669 10667 10666 10665 10663 10661 10660 10658 10655 10653 10651 10648 10644 10640 10638 10635 10631 10628 10625 10622 10618 10615 10611 10608 10604 10599 10597 10594 10591 10586 10579 10572 10564 10559 10555 10551 10547 10541 10535 10531 10528 10525 10520 10517 10515 10511 10506 10501 10498 10498 10491 10474 10466 10467 10464 10459 10454 10447 10440 10433 10429 10425 10419 10413 10408 10400 10391 10383
10660 10662 10663 10664 10664 10665 10667 10668 10669 10670 10670 10671 10671 10671 10671 10670 10670 10669 10668 10667 10666 10664 10663 10661 10660 10658 10656 10654 10651 10648 10646 10644 10641 10636 10633 10630 10626 10623 10620 10617 10613 10609 10606 10603 10599 10594 10591 10587 10585 10582 10577 10569 10559 10551 10547 10545 10542 10536 10531 10528 10525 10521 10516 10513 10509 10506 10502 10497 10492 10493 10491 10477 10464 10461 10458 10454 10449 10442 10435 10426 10419 10416 10413 10407 10401 10393 10385 10377
10659 10661 10662 10662 10663 10664 10666 10666 10667 10667 10668 10668 10668 10668 10668 10668 10667 10666 10665 10664 10663 10661 10660 10658 10656 10654 10652 10649 10647 10644 10641 10639 10637 10633 10628 10625 10621 10618 10615 10611 10608 10604 10600 10597 10593 10589 10586 10581 10576 10574 10573 10568 10559 10550 10544 10541 10537 10531 10527 10524 10521 10516 10512 10509 10505 10502 10498 10493 10486 10484 10486 10477 10463 10457 10454 10448 10443 10438 10429 10419 10409 10404 10401 10398 10393 10386 10378 10371
10658 10659 10660 10661 10662 10663 10664 10664 10665 10666 10666 10666 10666 10666 10666 10665 10664 10663 10662 10661 10660 10658 10656 10654 10652 10650 10648 10645 10642 10639 10636 10633 10631 10628 10623 10620 10617 10613 10609 10606 10602 10599 10595 10591 10588 10584 10581 10575 10568 10564 10562 10559 10555 10552 10548 10542 10535 10529 10524 10521 10517 10511 10507 10504 10501 10497 10495 10492 10483 10476 10478 10476 10462 10454 10451 10443 10437 10432 10426 10416 10405 10397 10392 10388 10383 10377 10370 10362
10657 10658 10659 10660 10661 10662 10663 10663 10664 10664 10664 10664 10664 10664 10664 10663 10661 10660 10659 10657 10656 10654 10653 10650 10648 10646 10643 10640 10637 10634 10631 10627 10625 10623 10619 10615 10612 10608 10605 10601 10597 10593 10589 10586 10582 10579 10576 10570 10562 10557 10553 10548 10545 10543 10542 10539 10533 10527 10523 10519 10514 10509 10504 10499 10496 10493 10490 10489 10483 10472 10469 10471 10462 10452 10448 10440 10433 10427 10420 10413 10403 10394 10389 10383 10377 10370 10363 10354
10657 10658 10659 10660 10661 10661 10662 10662 10662 10662 10662 10662 10661 10661 10661 10660 10658 10657 10655 10654 10652 10650 10648 10646 10644 10642 10638 10635 10633 10629 10626 10623 10619 10617 10614 10611 10607 10603 10600 10596 10592 10588 10584 10580 10577 10573 10571 10566 10558 10553 10548 10541 10538 10537 10534 10532 10528 10523 10519 10516 10510 10505 10500 10494 10490 10488 10484 10481 10480 10471 10462 10460 10456 10449 10442 10434 10427 10422 10415 10406 10397 10389 10384 10379 10373 10365 10356 10347
10657 10658 10658 10659 10660 10660 10660 10660 10660 10660 10660 10660 10659 10658 10657 10656 10655 10654 10651 10650 10648 10646 10645 10641 10639 10637 10633 10631 10628 10625 10622 10618 10614 10611 10608 10605 10602 10598 10595 10591 10587 10583 10578 10575 10572 10568 10566 10561 10555 10550 10544 10535 10533 10533 10530 10526 10523 10519 10515 10512 10507 10500 10496 10490 10484 10481 10478 10473 10471 10467 10459 10450 10444 10441 10435 10426 10418 10413 10406 10397 10388 10380 10374 10369 10363 10356 10347 10337
10656 10657 10657 10658 10658 10658 10658 10658 10658 10658 10658 10657 10656 10655 10654 10653 10652 10650 10648 10646 10644 10642 10640 10637 10634 10631 10628 10625 10623 10620 10617 10613 10610 10606 10603 10600 10596 10593 10590 10586 10581 10578 10574 10570 10566 10562 10561 10557 10551 10547 10541 10532 10529 10529 10526 10522 10518 10513 10509 10506 10502 10496 10490 10485 10478 10474 10472 10468 10462 10459 10455 10446 10435 10430 10427 10419 10409 10402 10395 10387 10378 10371 10364 10356 10349 10344 10337 10328
10655 10655 10656 10656 10656 10656 10657 10657 10656 10656 10655 10654 10653 10652 10651 10650 10648 10647 10645 10643 10640 10638 10635 10633 10629 10626 10623 10620 10617 10614 10611 10608 10605 10602 10598 10595 10591 10588 10585 10581 10576 10573 10569 10565 10562 10558 10555 10552 10547 10544 10539 10530 10526 10524 10521 10517 10514 10510 10505 10500 10496 10491 10486 10480 10473 10467 10463 10461 10456 10449 10446 10442 10432 10423 10418 10411 10402 10394 10386 10377 10367 10361 10356 10347 10337 10331 10326 10320
10654 10654 10655 10655 10655 10655 10655 10654 10654 10653 10653 10652 10651 10649 10648 10646 10644 10643 10640 10638 10636 10634 10630 10627 10624 10621 10618 10615 10612 10609 10606 10603 10600 10597 10594 10590 10587 10583 10580 10576 10572 10569 10564 10561 10558 10553 10550 10548 10544 10541 10537 10529 10525 10522 10517 10512 10509 10506 10502 10497 10491 10486 10481 10474 10467 10459 10453 10453 10450 10443 10438 10434 10428 10421 10415 10407 10396 10384 10374 10363 10352 10347 10347 10341 10330 10321 10315 10308
10653 10653 10653 10653 10653 10653 10653 10652 10651 10651 10650 10649 10647 10646 10644 10642 10640 10638 10636 10633 10631 10629 10626 10623 10619 10616 10613 10610 10607 10604 10601 10598 10595 10592 10588 10585 10582 10578 10575 10571 10568 10564 10561 10557 10554 10550 10547 10544 10541 10538 10534 10528 10522 10519 10514 10509 10506 10502 10498 10493 10487 10481 10476 10470 10461 10451 10445 10442 10440 10435 10429 10424 10417 10411 10407 10402 10394 10381 10368 10354 10340 10334 10334 10332 10324 10313 10303 10296